Simultaneous Nadir Overpasses (SNOs) Predictions

Prediction of SNOs near US between AQUA and NPP Satellite Orbit:

Table of predicted SNOs near US for the next 10.0 days since TLE Epoch: 2/17/2012
Index Date (AQUA) Time (AQUA) AQUA Lat,Lon Date (NPP) Time (NPP) NPP Lat,Lon Distance(km) Time Diff (sec)
1 02/17/2012 19:06:29 49.99, -92.65 02/17/2012 19:00:29 49.71, -94.40 129.53 360
2 02/17/2012 20:45:22 49.98,-117.37 02/17/2012 20:41:57 49.60,-119.73 174.81 205
3 02/23/2012 07:18:55 49.90, -76.06 02/23/2012 07:19:29 50.32, -78.24 161.92 34
4 02/23/2012 08:57:48 49.91,-100.78 02/23/2012 09:00:56 50.48,-103.54 206.44 188
5 02/25/2012 18:17:04 49.99, -80.28 02/25/2012 18:09:45 49.74, -81.75 108.84 439
6 02/25/2012 19:55:57 49.98,-105.00 02/25/2012 19:51:13 49.63,-107.08 154.08 284
7 02/25/2012 21:31:02 36.39,-125.00 02/25/2012 21:28:46 35.90,-127.48 229.12 136




NCC Satellite Simultaneous Nadir Overpasses (SNOs) Prediction Service
